[[{"header":{"parameterUnit":"m.s-1","parameterCategory":1,"la1":30.2991,"la2":30.254,"lo1":-89.0895,"lo2":-89.0444,"dy":0.0017,"dx":0.0017,"nx":28,"ny":28,"refTime":"2026-02-17T03:00:00:Z","depth":0,"parameterNumber":2,"parameterNumberName":"U-component_of_WINDS"},"data":[0,0,0,0,0,0,0,0,0,0,0,0,0,0,0,0,0,0,0,0,0,0,0,0,0,0,0,0,0,0,0,0,0,0,0,0,0,0,0,0,0,0,0,0,0,0,0,0,0,0,0,0,0,0,0,0,0,0,-0.5659,-0.5659,0,-0.5692,-0.5692,-0.5692,-0.5713,-0.5713,-0.5713,-0.5713,-0.5747,-0.5748,-0.5749,0,0,0,0,0,0,0,0,0,0,0,0,0,-0.5615,-0.5615,-0.5659,-0.5659,-0.566,-0.5691,-0.5692,-0.5692,-0.5713,-0.5713,-0.5713,-0.5713,-0.5747,-0.5748,-0.5749,0,0,0,0,0,0,0,0,0,0,0,0,0,-0.5639,-0.5616,-0.5659,-0.5674,-0.5675,-0.5691,-0.5692,-0.5693,-0.5713,-0.5713,-0.5713,-0.5713,-0.5747,-0.5748,-0.5749,-0.5754,0,0,-0.5753,-0.5754,0,0,0,0,0,0,0,0,-0.5638,-0.5641,-0.5671,-0.5673,-0.5674,-0.5698,-0.5689,-0.5713,-0.5713,-0.5698,-0.5713,-0.5713,-0.5731,-0.5734,-0.5739,-0.5755,-0.5757,-0.5753,-0.5754,-0.5754,-0.5755,0,0,0,0,0,0,0,-0.5636,-0.564,-0.5672,-0.5671,-0.5674,-0.5679,-0.5682,-0.5694,-0.5713,-0.57,-0.5701,-0.5705,-0.5732,-0.5738,-0.574,-0.5757,-0.5753,-0.5754,-0.5755,-0.5755,-0.5777,-0.5777,0,0,0,0,0,0,-0.5632,-0.5638,-0.5671,-0.5673,-0.5656,-0.5679,-0.5684,-0.569,-0.5713,-0.5717,-0.5705,-0.5706,-0.5736,-0.5739,-0.5742,-0.5748,-0.5754,-0.5756,-0.5756,-0.5778,-0.5777,-0.5777,0,0,0,0,0,0,-0.5631,-0.5635,-0.567,-0.5656,-0.5661,-0.568,-0.5688,-0.5691,-0.5697,-0.5717,-0.5721,-0.5707,-0.5736,-0.574,-0.575,-0.5749,-0.5756,-0.5757,-0.5778,-0.5778,-0.5777,-0.576,0,0,0,0,0,0,-0.563,-0.5634,-0.5636,-0.5656,-0.5661,-0.5677,-0.5688,-0.5691,-0.5699,-0.5701,-0.572,-0.5724,-0.5737,-0.5748,-0.5751,-0.5751,-0.5758,-0.5778,-0.5778,-0.5777,-0.5761,-0.5759,-0.5758,0,0,0,0,0,-0.5628,-0.563,-0.5636,-0.564,-0.5664,-0.5677,-0.5681,-0.5695,-0.5699,-0.5701,-0.5713,-0.5723,-0.5749,-0.5749,-0.5753,-0.5753,-0.5778,-0.5778,-0.5777,-0.5761,-0.5759,-0.5758,0,0,0,0,0,0,-0.5611,-0.5633,-0.564,-0.5649,-0.5661,-0.5681,-0.5684,-0.5692,-0.5704,-0.5705,-0.5723,-0.5727,-0.5735,-0.5745,-0.5745,-0.5758,-0.5764,-0.5765,-0.5751,-0.5749,-0.5748,-0.5745,-0.5759,0,0,0,0,0,-0.5608,-0.5616,-0.5636,-0.5642,-0.5647,-0.5664,-0.5671,-0.568,-0.5694,-0.5699,-0.5713,-0.5726,-0.5737,-0.5744,-0.5755,-0.5762,-0.5766,-0.5764,-0.5762,-0.5761,-0.5761,-0.5765,-0.5764,-0.5776,-0.5776,-0.5776,0,0,-0.5602,-0.5615,-0.562,-0.5638,-0.5649,-0.5658,-0.5669,-0.5678,-0.5684,-0.5701,-0.5711,-0.5721,-0.5737,-0.5746,-0.575,-0.5754,-0.5759,-0.5761,-0.5759,-0.576,-0.5764,-0.5763,-0.5762,-0.5776,-0.5776,-0.5776,0,0,-0.5596,-0.5607,-0.5613,-0.5623,-0.5639,-0.565,-0.5651,-0.5669,-0.5677,-0.5687,-0.57,-0.5708,-0.5726,-0.5737,-0.5744,-0.5741,-0.575,-0.5744,-0.5737,-0.574,-0.5739,-0.5738,-0.5736,-0.5736,-0.5744,-0.5744,-0.5744,0,-0.5587,-0.56,-0.5615,-0.5623,-0.563,-0.5645,-0.5651,-0.566,-0.5679,-0.5684,-0.5688,-0.571,-0.5722,-0.5733,-0.5732,-0.5738,-0.574,-0.5742,-0.5738,-0.5737,-0.5737,-0.5735,-0.5735,-0.5743,-0.5743,-0.5743,-0.5744,0,-0.5588,-0.5597,-0.56,-0.5617,-0.5624,-0.5631,-0.5647,-0.5653,-0.5662,-0.5672,-0.5682,-0.5697,-0.5711,-0.5714,-0.5723,-0.5726,-0.5728,-0.5735,-0.5742,-0.5734,-0.5733,-0.5733,-0.5742,-0.5742,-0.5743,-0.5743,0,0,-0.5573,-0.5597,-0.5597,-0.5605,-0.5623,-0.563,-0.5637,-0.565,-0.5655,-0.5667,-0.5673,-0.5688,-0.5694,-0.5703,-0.5713,-0.5716,-0.5711,-0.5723,-0.5723,-0.5719,-0.5715,-0.5709,-0.5708,-0.5718,-0.5718,-0.5718,-0.5713,0,-0.5569,-0.5582,-0.5595,-0.5604,-0.5612,-0.5626,-0.5632,-0.5643,-0.5653,-0.5662,-0.5673,-0.5683,-0.569,-0.5696,-0.5699,-0.5711,-0.5711,-0.5712,-0.5724,-0.5724,-0.5719,-0.5708,-0.5702,-0.5697,-0.5713,-0.5713,-0.5713,0,-0.5567,-0.5577,-0.5586,-0.5602,-0.5606,-0.5612,-0.5624,-0.5632,-0.5645,-0.5652,-0.5661,-0.5672,-0.568,-0.5686,-0.5697,-0.5697,-0.5703,-0.5709,-0.571,-0.5711,-0.5718,-0.5708,-0.5696,-0.5695,-0.5712,-0.5712,-0.5712,0,-0.5554,-0.5571,-0.5578,-0.5584,-0.5603,-0.5606,-0.5614,-0.5628,-0.5634,-0.5645,-0.5649,-0.5661,-0.5668,-0.5677,-0.569,-0.5694,-0.57,-0.5707,-0.5705,-0.5705,-0.5706,-0.5706,-0.5694,-0.571,-0.571,-0.571,-0.571,0,-0.5548,-0.5553,-0.5572,-0.5577,-0.5582,-0.5597,-0.5602,-0.5612,-0.5623,-0.563,-0.5643,-0.5649,-0.5666,-0.5674,-0.5685,-0.5692,-0.5695,-0.57,-0.5703,-0.5699,-0.5698,-0.5703,-0.5703,-0.571,-0.571,-0.571,-0.571,0,-0.5535,-0.5548,-0.5557,-0.5574,-0.5578,-0.5581,-0.5596,-0.5601,-0.5611,-0.5619,-0.5622,-0.5638,-0.5648,-0.5662,-0.5676,-0.5683,-0.5689,-0.5694,-0.5684,-0.5686,-0.5683,-0.5683,-0.5673,-0.5672,-0.5689,-0.5689,-0.5689,0,-0.5531,-0.5534,-0.5551,-0.5556,-0.5564,-0.5572,-0.5578,-0.5592,-0.5598,-0.5613,-0.5616,-0.5627,-0.5636,-0.5651,-0.5664,-0.5675,-0.568,-0.5676,-0.5682,-0.5677,-0.5679,-0.5679,-0.5679,-0.5674,-0.5674,-0.5674,-0.5674,0,-0.5521,-0.5527,-0.5535,-0.5546,-0.5553,-0.5562,-0.5572,-0.5575,-0.5591,-0.5598,-0.5607,-0.5614,-0.5629,-0.5639,-0.5651,-0.566,-0.5669,-0.5672,-0.5672,-0.5667,-0.5661,-0.5664,-0.568,-0.5672,-0.5672,-0.5672,-0.5672,-0.5672,-0.5512,-0.5515,-0.5527,-0.5536,-0.5545,-0.5553,-0.5558,-0.5568,-0.5577,-0.5589,-0.5597,-0.5606,-0.5618,-0.5636,-0.5644,-0.5651,-0.5655,-0.5656,-0.5656,-0.5655,-0.5653,-0.566,-0.5654,-0.5654,-0.5654,-0.5654,-0.5654,0,-0.5502,-0.551,-0.5518,-0.5531,-0.5537,-0.5545,-0.5556,-0.5561,-0.5569,-0.5579,-0.5588,-0.5598,-0.5608,-0.5622,-0.5632,-0.5636,-0.564,-0.5638,-0.5638,-0.5639,-0.565,-0.5648,-0.5634,-0.5634,-0.5634,-0.5634,-0.5634,-0.5634,-0.5498,-0.5504,-0.5511,-0.5522,-0.553,-0.5538,-0.5544,-0.5552,-0.556,-0.5571,-0.5579,-0.5587,-0.5599,-0.561,-0.5619,-0.5623,-0.5626,-0.5623,-0.5628,-0.5637,-0.5639,-0.564,-0.5639,-0.5623,-0.5623,-0.5617,-0.5617,-0.5616]},{"header":{"parameterUnit":"m.s-1","parameterCategory":1,"la1":30.2991,"la2":30.254,"lo1":-89.0895,"lo2":-89.0444,"dy":0.0017,"dx":0.0017,"nx":28,"ny":28,"refTime":"2026-02-17T03:00:00:Z","depth":0,"parameterNumber":3,"parameterNumberName":"V-component_of_WINDS"},"data":[0,0,0,0,0,0,0,0,0,0,0,0,0,0,0,0,0,0,0,0,0,0,0,0,0,0,0,0,0,0,0,0,0,0,0,0,0,0,0,0,0,0,0,0,0,0,0,0,0,0,0,0,0,0,0,0,0,0,2.8055,2.8056,0,2.8179,2.8181,2.8182,2.8216,2.8216,2.8215,2.8214,2.8344,2.8348,2.8352,0,0,0,0,0,0,0,0,0,0,0,0,0,2.7849,2.7853,2.8055,2.8056,2.8058,2.8179,2.8181,2.8182,2.8216,2.8215,2.8215,2.8214,2.8343,2.8348,2.8353,0,0,0,0,0,0,0,0,0,0,0,0,0,2.7953,2.7854,2.8054,2.8089,2.8094,2.8179,2.8181,2.8183,2.8217,2.8215,2.8214,2.8213,2.8341,2.8347,2.8354,2.8414,0,0,2.8373,2.8375,0,0,0,0,0,0,0,0,2.7947,2.796,2.8083,2.8087,2.8092,2.8181,2.8156,2.826,2.8217,2.817,2.8214,2.8213,2.8291,2.8301,2.8327,2.842,2.8425,2.8373,2.8377,2.838,2.8381,0,0,0,0,0,0,0,2.794,2.7955,2.8104,2.8084,2.809,2.81,2.8113,2.8176,2.8235,2.8174,2.8177,2.8191,2.8294,2.8321,2.833,2.8427,2.8373,2.8378,2.8382,2.8385,2.8577,2.8578,0,0,0,0,0,0,2.7926,2.7949,2.81,2.8108,2.8015,2.8104,2.8119,2.8154,2.8235,2.8246,2.8192,2.8192,2.8311,2.8323,2.8335,2.8412,2.8379,2.8385,2.8389,2.8575,2.8577,2.8578,0,0,0,0,0,0,2.7921,2.7939,2.8095,2.8029,2.805,2.8109,2.8147,2.8157,2.8184,2.8248,2.8259,2.8209,2.8311,2.8326,2.8394,2.8417,2.8388,2.8394,2.8574,2.8576,2.8578,2.8565,0,0,0,0,0,0,2.7915,2.7937,2.796,2.8029,2.8053,2.8151,2.8149,2.816,2.8195,2.8196,2.8267,2.8278,2.8311,2.8384,2.84,2.8425,2.8399,2.8572,2.8575,2.8577,2.8564,2.8566,2.8569,0,0,0,0,0,2.7908,2.7952,2.7961,2.7979,2.8083,2.8152,2.8166,2.8202,2.8196,2.822,2.8261,2.8275,2.8411,2.8391,2.8409,2.8436,2.8571,2.8574,2.8577,2.8563,2.8566,2.8569,0,0,0,0,0,0,2.7885,2.7962,2.7973,2.804,2.8089,2.8158,2.8189,2.8205,2.8257,2.8257,2.8301,2.8316,2.8381,2.8415,2.8391,2.8499,2.8492,2.8498,2.8475,2.8478,2.8481,2.8472,2.8404,0,0,0,0,0,2.7887,2.7936,2.8001,2.8055,2.8079,2.8129,2.8161,2.8185,2.8238,2.8259,2.8305,2.8357,2.8411,2.8447,2.85,2.8568,2.8585,2.8596,2.8598,2.86,2.8606,2.8646,2.8652,2.8589,2.8589,2.8589,0,0,2.7893,2.7941,2.797,2.8051,2.8092,2.8143,2.8147,2.82,2.8239,2.8268,2.8334,2.837,2.843,2.8499,2.8531,2.8529,2.8627,2.8604,2.8605,2.861,2.865,2.8656,2.8661,2.8591,2.859,2.859,0,0,2.7931,2.7971,2.8021,2.8062,2.8123,2.8157,2.8168,2.8235,2.8259,2.8326,2.8349,2.8396,2.8489,2.8532,2.8566,2.8619,2.8635,2.8635,2.8649,2.8688,2.8693,2.8697,2.8718,2.8724,2.8641,2.8641,2.8641,0,2.7931,2.8008,2.8045,2.8097,2.8133,2.816,2.8211,2.8249,2.8325,2.835,2.8346,2.8464,2.8506,2.8586,2.8599,2.8625,2.8641,2.8628,2.8689,2.8694,2.8699,2.8719,2.8726,2.864,2.8641,2.8641,2.8641,0,2.8006,2.8059,2.8091,2.8164,2.8203,2.8254,2.83,2.8335,2.8355,2.839,2.8458,2.8511,2.8576,2.8596,2.8617,2.8679,2.8676,2.868,2.8673,2.8704,2.8724,2.8732,2.864,2.864,2.864,2.864,0,0,2.8033,2.8124,2.8136,2.817,2.8239,2.8282,2.8335,2.8397,2.8428,2.8479,2.8526,2.8604,2.8608,2.8646,2.8672,2.8705,2.8746,2.8706,2.8708,2.8713,2.882,2.8817,2.8825,2.8756,2.8758,2.8759,2.8815,0,2.808,2.8175,2.821,2.8289,2.8339,2.8366,2.8412,2.8461,2.8494,2.8542,2.8579,2.8634,2.8635,2.8658,2.8693,2.8734,2.8769,2.873,2.8802,2.8804,2.8787,2.8835,2.8833,2.8883,2.8823,2.8824,2.8825,0,2.8148,2.82,2.8284,2.8348,2.837,2.8411,2.8472,2.8517,2.8573,2.8595,2.8638,2.8661,2.8719,2.8708,2.8789,2.8762,2.8794,2.8818,2.8821,2.8831,2.8817,2.8847,2.8899,2.8907,2.8837,2.8836,2.8835,0,2.8162,2.8252,2.8314,2.8342,2.8418,2.8446,2.8479,2.8534,2.857,2.8623,2.8647,2.8707,2.874,2.8786,2.8825,2.8813,2.8903,2.8895,2.8925,2.8924,2.8944,2.8942,2.9003,2.8961,2.8961,2.8961,2.8961,0,2.8212,2.8262,2.8321,2.8359,2.8417,2.8456,2.8513,2.8548,2.8596,2.8642,2.8669,2.8712,2.8761,2.8811,2.8842,2.8905,2.892,2.894,2.8948,2.8939,2.8936,2.8961,2.8959,2.8963,2.8963,2.8962,2.8962,0,2.8237,2.8278,2.8347,2.8413,2.8431,2.8471,2.8528,2.8567,2.8601,2.8659,2.8675,2.873,2.879,2.8833,2.8911,2.8932,2.9,2.9008,2.8981,2.8986,2.9013,2.901,2.9093,2.9107,2.9054,2.9055,2.9055,0,2.8267,2.8306,2.8376,2.8409,2.8441,2.8493,2.853,2.857,2.8608,2.8674,2.8705,2.8767,2.8819,2.8914,2.8961,2.9021,2.903,2.9055,2.904,2.9029,2.9033,2.903,2.9035,2.9058,2.9058,2.9058,2.9059,0,2.8316,2.8334,2.8385,2.8444,2.8486,2.8535,2.8583,2.8609,2.8658,2.8699,2.876,2.88,2.8879,2.894,2.9005,2.904,2.9059,2.9063,2.9073,2.9065,2.9048,2.9059,2.8989,2.9061,2.9061,2.9061,2.9061,2.9061,2.8345,2.8382,2.8437,2.8493,2.8534,2.8579,2.8619,2.8658,2.8709,2.8776,2.8797,2.8861,2.8917,2.9005,2.9041,2.9092,2.9092,2.9106,2.911,2.9113,2.9114,2.9039,2.9104,2.9104,2.9104,2.9104,2.9104,0,2.8397,2.8434,2.8485,2.8552,2.8597,2.8608,2.8663,2.87,2.8755,2.8805,2.8855,2.8926,2.8986,2.9037,2.9099,2.9131,2.9141,2.9146,2.9145,2.9153,2.911,2.9096,2.9137,2.9137,2.9137,2.9137,2.9137,2.9137,2.843,2.8492,2.8517,2.8601,2.8637,2.8699,2.873,2.8772,2.8812,2.889,2.8939,2.8972,2.9023,2.9089,2.9145,2.9158,2.9181,2.9184,2.92,2.916,2.9156,2.9152,2.9139,2.9188,2.9188,2.9239,2.924,2.924]}]]